Location: Kirchberg
(47.4114°N, 9.0398°E)
Time: 00:21:53
(UTC+00:00)

SAR-Lupe-4 - Pass Details

Date: 03 March 2021
Orbit: 481 x 485 km, 98.2° (Epoch: 26 March)

Event Time Altitude Azimuth Distance (km) Brightness Sun altitude
Rises 18:05:04 0° 18° (NNE) 2,555 7.1 -9.8°
Reaches altitude 10° 18:07:11 10° 23° (NNE) 1,670 6.1 -10.1°
Maximum altitude 18:10:42 52° 101° (ESE) 606 3.6 -10.7°
Drops below altitude 10° 18:14:10 10° 179° (S) 1,657 6.2 -11.3°
Sets 18:16:15 0° 184° (S) 2,532 7.2 -11.7°
